Regional Weather Roundup
Issued by NWS Goodland, KS

Home | Current Version | Previous Version | Graphics & Text | Print | Product List | Glossary On
Versions: 1 2 3 4 5 6 7 8 9 10 11 12 13 14 15 16 17 18 19 20 21 22 23 24 25 26 27 28 29 30 31 32 33 34 35 36 37 38 39 40 41 42 43 44 45 46 47 48 49 50
000
ASUS43 KGLD 191908
RWRGLD

GOODLAND FORECAST AREA HOURLY WEATHER ROUNDUP
NATIONAL WEATHER SERVICE GOODLAND KS
100 PM MDT THU APR 19 2018

...OFFICIAL OBSERVATIONS...

CITY           SKY/WX    TMP DP  RH WIND       PRES   REMARKS
GOODLAND KS    SUNNY     59  28  30 SE18G31   30.30F
HILL CITY KS   SUNNY     56  29  35 SE9       30.40F
IMPERIAL NEB   SUNNY     58  30  34 SE17      30.31F
MCCOOK NEB     SUNNY     56  28  34 E14G20    30.36F
AKRON CO       CLOUDY    56  26  31 SE29G37   30.23F
BURLINGTON CO  MOSUNNY   60  25  26 SE33G44   30.27F
LIMON CO       PTSUNNY   58  14  17 S29G47    30.21F
$$

...UNOFFICIAL OBSERVATIONS...

CITY           SKY/WX    TMP DP  RH WIND       PRES   REMARKS
COLBY KS       SUNNY     59  34  38 SE15      30.35F
NORTON KS      SUNNY     57  28  33 NE8       30.38
SHARON SPRINGS   N/A     62  29  28 SE18G32     N/A
KIT CARSON CO    N/A     57  28  32 MISG        N/A
YUMA CO        FAIR      55  25  30 SE24G35   30.25F
$$



USA.gov is the U.S. government's official web portal to all federal, state and local government web resources and services.